Location: Hilton Head Island
(32.2163°N, 80.7526°W)
Time: 15:18:25
(UTC-05:00)

Explorer 11/Cluster Stage 4 - Pass Details

Date: 18 February 2026
Orbit: 463 x 1176 km, 28.8° (Epoch: 6 March)

Event Time Altitude Azimuth Distance (km) Brightness Sun altitude
Rises 16:41:04 0° 268° (W) 2,497 10.4 17.2°
Reaches altitude 10° 16:43:23 10° 258° (WSW) 1,600 10.2 16.8°
Maximum altitude 16:46:37 32° 193° (SSW) 812 7.4 16.2°
Drops below altitude 10° 16:49:58 10° 128° (SE) 1,652 8.0 15.5°
Sets 16:52:24 0° 118° (ESE) 2,594 8.9 15.1°
